This demonstration page uses our WeatherBlox Daily Observations layout. Learn more.

Left ArrowRight Arrow

41.55636, -103.73856

Hourly Observations for January 16, 2022

Temp ( °F °C ) Dew Point ( °F °C ) Humidity (%) Winds ( mph kmh ) Pressure ( in mb ) Visibility ( mi km ) Precip ( " mm )
12:58 am 00:58 Clear 35 1.6 18 -7.9 50 50 W 15 24 30.07 1018 10 16 0.00 0.00
1:58 am 01:58 Clear 33 0.8 19 -7.5 54 54 W 12 19 30.08 1019 10 16 0.00 0.00
2:58 am 02:58 Mostly Clear 33 0.3 18 -8 54 54 WNW 12 19 30.07 1018 10 16 0.00 0.00
3:58 am 03:58 Clear 29 -1.5 18 -8 62 62 W 13 20 30.08 1019 10 16 0.00 0.00
4:58 am 04:58 Clear 32 0 16 -9 51 51 W 12 19 30.09 1019 10 16 0.00 0.00
5:58 am 05:58 Clear 32 -0.2 15 -9.2 51 51 W 8 13 30.12 1020 10 16 0.00 0.00
6:58 am 06:58 Clear 33 0.3 15 -9.7 47 47 W 9 15 30.14 1021 10 16 0.00 0.00
7:58 am 07:58 Sunny 32 -0.1 15 -9.4 50 50 WNW 10 17 30.15 1021 10 16 0.00 0.00
8:58 am 08:58 Sunny 34 1.3 15 -9.2 46 46 NW 10 17 30.16 1021 10 16 0.00 0.00
9:58 am 09:58 Sunny 38 3.5 16 -9.1 40 40 NW 13 20 30.16 1021 10 16 0.00 0.00
10:58 am 10:58 Sunny 42 5.8 16 -9 34 34 NW 17 28 30.14 1021 10 16 0.00 0.00
11:58 am 11:58 Sunny 44 6.7 20 -6.5 39 39 N 20 31 30.13 1020 10 16 0.00 0.00
12:58 pm 12:58 Sunny 45 7.2 21 -6.1 39 39 N 22 35 30.13 1020 10 16 0.00 0.00
1:58 pm 13:58 Mostly Sunny 45 7.1 20 -6.9 37 37 N 24 39 30.13 1020 10 16 0.00 0.00
2:58 pm 14:58 Mostly Sunny 44 6.6 20 -6.7 38 38 N 20 31 30.14 1021 10 16 0.00 0.00
3:58 pm 15:58 Sunny 42 5.7 19 -7.1 40 40 N 17 28 30.16 1021 10 16 0.00 0.00
4:58 pm 16:58 Clear 36 2.1 20 -6.6 53 53 NNE 9 15 30.16 1021 10 16 0.00 0.00
5:58 pm 17:58 Clear 33 0.5 22 -5.5 64 64 NE 8 13 30.19 1022 10 16 0.00 0.00
6:58 pm 18:58 Clear 31 -0.7 22 -5.5 70 70 S 6 9 30.19 1023 10 16 0.00 0.00
7:58 pm 19:58 Clear 31 -0.7 22 -5.7 69 69 SSW 5 7 30.19 1022 10 16 0.00 0.00
8:58 pm 20:58 Clear 26 -3.2 21 -6 81 81 SSW 10 17 30.19 1022 10 16 0.00 0.00
9:58 pm 21:58 Clear 28 -2.3 21 -6.3 74 74 SSW 15 24 30.14 1021 10 16 0.00 0.00
10:58 pm 22:58 Clear 28 -2.1 21 -6.3 73 73 SW 7 11 30.10 1019 10 16 0.00 0.00
11:58 pm 23:58 Clear 30 -1 21 -6 69 69 SW 21 33 30.04 1017 10 16 0.00 0.00

Powered by AerisWeather